Time,TemperatureF,DewpointF,PressureIn,WindDirection,WindDirectionDegrees,WindSpeedMPH,WindSpeedGustMPH,Humidity,HourlyPrecipIn,Conditions,Clouds,dailyrainin,SoftwareType,DateUTC
2013-03-26 00:03:00,36.0,-99.9,29.70,NW,310,7.0,9.0,-999,-99.99,,,-99.99,,2013-03-26 04:03:00,
2013-03-26 00:13:00,36.0,-99.9,29.70,North,-999,-999.0,-999.0,-999,-99.99,,,-99.99,,2013-03-26 04:13:00,
2013-03-26 00:23:00,37.0,-99.9,29.70,North,-999,-999.0,-999.0,-999,-99.99,,,-99.99,,2013-03-26 04:23:00,
2013-03-26 00:33:00,37.0,-99.9,29.70,WNW,302,5.0,7.0,-999,-99.99,,,-99.99,,2013-03-26 04:33:00,
2013-03-26 00:43:00,37.0,-99.9,29.71,WNW,300,6.0,8.0,-999,-99.99,,,-99.99,,2013-03-26 04:43:00,
2013-03-26 00:53:00,37.0,-99.9,29.71,North,-999,-999.0,-999.0,-999,-99.99,,,-99.99,,2013-03-26 04:53:00,
2013-03-26 01:02:00,36.0,-99.9,29.71,WNW,285,5.0,6.0,-999,-99.99,,,-99.99,,2013-03-26 05:02:00,
2013-03-26 01:12:00,36.0,-99.9,29.71,North,-999,-999.0,-999.0,-999,-99.99,,,-99.99,,2013-03-26 05:12:00,
2013-03-26 01:23:00,-999.0,-99.9,29.71,NW,305,7.0,10.0,-999,-99.99,,,-99.99,,2013-03-26 05:23:00,
2013-03-26 01:32:00,37.0,-99.9,29.71,WNW,296,6.0,7.0,-999,-99.99,,,-99.99,,2013-03-26 05:32:00,
2013-03-26 01:43:00,37.0,-99.9,29.72,NW,306,4.0,8.0,-999,-99.99,,,-99.99,,2013-03-26 05:43:00,
2013-03-26 01:52:00,37.0,-99.9,29.72,North,-999,-999.0,-999.0,-999,-99.99,,,-99.99,,2013-03-26 05:52:00,
2013-03-26 02:02:00,37.0,-99.9,29.72,NW,317,6.0,9.0,-999,-99.99,,,-99.99,,2013-03-26 06:02:00,
2013-03-26 02:12:00,37.0,-99.9,29.72,North,-999,-999.0,-999.0,-999,-99.99,,,-99.99,,2013-03-26 06:12:00,
2013-03-26 02:22:00,-999.0,-99.9,29.73,NW,321,4.0,6.0,-999,-99.99,,,-99.99,,2013-03-26 06:22:00,
2013-03-26 02:32:00,37.0,-99.9,29.73,NNW,332,4.0,5.0,-999,-99.99,,,-99.99,,2013-03-26 06:32:00,
2013-03-26 02:43:00,37.0,-99.9,29.73,North,-999,-999.0,-999.0,-999,-99.99,,,-99.99,,2013-03-26 06:43:00,
2013-03-26 02:53:00,37.0,-99.9,29.74,North,-999,-999.0,-999.0,-999,-99.99,,,-99.99,,2013-03-26 06:53:00,
2013-03-26 03:02:00,37.0,-99.9,29.74,NW,306,7.0,11.0,-999,-99.99,,,-99.99,,2013-03-26 07:02:00,
2013-03-26 03:12:00,37.0,-99.9,29.74,NW,317,8.0,10.0,-999,-99.99,,,-99.99,,2013-03-26 07:12:00,
2013-03-26 03:22:00,-999.0,-99.9,29.74,NW,313,7.0,11.0,-999,-99.99,,,-99.99,,2013-03-26 07:22:00,
2013-03-26 03:33:00,37.0,-99.9,29.74,NW,315,8.0,11.0,-999,-99.99,,,-99.99,,2013-03-26 07:33:00,
2013-03-26 03:43:00,37.0,-99.9,29.74,North,-999,-999.0,-999.0,-999,-99.99,,,-99.99,,2013-03-26 07:43:00,
2013-03-26 03:53:00,37.0,-99.9,29.75,North,-999,-999.0,-999.0,-999,-99.99,,,-99.99,,2013-03-26 07:53:00,
2013-03-26 04:02:00,37.0,-99.9,29.75,NW,314,6.0,10.0,-999,-99.99,,,-99.99,,2013-03-26 08:02:00,
2013-03-26 04:13:00,37.0,-99.9,29.75,NW,313,6.0,10.0,-999,-99.99,,,-99.99,,2013-03-26 08:13:00,
2013-03-26 04:22:00,-999.0,-99.9,29.75,NW,306,7.0,9.0,-999,-99.99,,,-99.99,,2013-03-26 08:22:00,
2013-03-26 04:32:00,37.0,-99.9,29.75,WNW,294,5.0,8.0,-999,-99.99,,,-99.99,,2013-03-26 08:32:00,
2013-03-26 04:42:00,-999.0,-99.9,29.75,NW,311,5.0,6.0,-999,-99.99,,,-99.99,,2013-03-26 08:42:00,
2013-03-26 04:52:00,37.0,-99.9,29.75,North,-999,-999.0,-999.0,-999,-99.99,,,-99.99,,2013-03-26 08:52:00,
2013-03-26 05:02:00,37.0,-99.9,29.75,West,281,3.0,8.0,-999,-99.99,,,-99.99,,2013-03-26 09:02:00,
2013-03-26 05:12:00,-999.0,-99.9,29.75,WNW,288,4.0,5.0,-999,-99.99,,,-99.99,,2013-03-26 09:12:00,
2013-03-26 05:22:00,36.0,-99.9,29.75,North,-999,-999.0,-999.0,-999,-99.99,,,-99.99,,2013-03-26 09:22:00,
2013-03-26 05:33:00,36.0,-99.9,29.76,NW,306,6.0,8.0,-999,-99.99,,,-99.99,,2013-03-26 09:33:00,
2013-03-26 05:43:00,36.0,-99.9,29.76,NW,308,5.0,7.0,-999,-99.99,,,-99.99,,2013-03-26 09:43:00,
2013-03-26 05:52:00,36.0,-99.9,29.76,North,-999,-999.0,-999.0,-999,-99.99,,,-99.99,,2013-03-26 09:52:00,
2013-03-26 06:03:00,36.0,-99.9,29.77,NW,311,7.0,8.0,-999,-99.99,,,-99.99,,2013-03-26 10:03:00,
2013-03-26 06:12:00,36.0,-99.9,29.77,North,-999,-999.0,-999.0,-999,-99.99,,,-99.99,,2013-03-26 10:12:00,
2013-03-26 06:23:00,36.0,-99.9,29.77,North,-999,-999.0,-999.0,-999,-99.99,,,-99.99,,2013-03-26 10:23:00,
2013-03-26 06:33:00,37.0,-99.9,29.78,NW,311,7.0,8.0,-999,-99.99,,,-99.99,,2013-03-26 10:33:00,
2013-03-26 06:43:00,36.0,-99.9,29.78,WNW,300,6.0,10.0,-999,-99.99,,,-99.99,,2013-03-26 10:43:00,
2013-03-26 06:53:00,36.0,-99.9,29.78,North,-999,-999.0,-999.0,-999,-99.99,,,-99.99,,2013-03-26 10:53:00,
2013-03-26 07:03:00,36.0,-99.9,29.79,NW,306,6.0,6.0,-999,-99.99,,,-99.99,,2013-03-26 11:03:00,
2013-03-26 07:13:00,36.0,-99.9,29.79,North,-999,-999.0,-999.0,-999,-99.99,,,-99.99,,2013-03-26 11:13:00,
2013-03-26 07:23:00,36.0,-99.9,29.80,North,-999,-999.0,-999.0,-999,-99.99,,,-99.99,,2013-03-26 11:23:00,
2013-03-26 07:33:00,36.0,-99.9,29.80,NW,304,6.0,7.0,-999,-99.99,,,-99.99,,2013-03-26 11:33:00,
2013-03-26 07:43:00,36.0,-99.9,29.81,North,-999,-999.0,-999.0,-999,-99.99,,,-99.99,,2013-03-26 11:43:00,
2013-03-26 07:53:00,-999.0,-99.9,29.81,NW,313,6.0,9.0,-999,-99.99,,,-99.99,,2013-03-26 11:53:00,
2013-03-26 08:03:00,-999.0,-99.9,29.81,NW,313,6.0,9.0,-999,-99.99,,,-99.99,,2013-03-26 12:03:00,
2013-03-26 08:12:00,37.0,-99.9,29.82,NW,316,7.0,8.0,-999,-99.99,,,-99.99,,2013-03-26 12:12:00,
2013-03-26 08:22:00,37.0,-99.9,29.82,North,-999,-999.0,-999.0,-999,-99.99,,,-99.99,,2013-03-26 12:22:00,
2013-03-26 08:32:00,37.0,-99.9,29.83,NW,320,7.0,9.0,-999,-99.99,,,-99.99,,2013-03-26 12:32:00,
2013-03-26 08:43:00,37.0,-99.9,29.83,North,-999,-999.0,-999.0,-999,-99.99,,,-99.99,,2013-03-26 12:43:00,
2013-03-26 08:52:00,-999.0,-99.9,29.83,NNW,329,7.0,13.0,-999,-99.99,,,-99.99,,2013-03-26 12:52:00,
2013-03-26 09:03:00,38.0,-99.9,29.84,NW,325,10.0,13.0,-999,-99.99,,,-99.99,,2013-03-26 13:03:00,
2013-03-26 09:12:00,38.0,-99.9,29.84,NW,318,11.0,13.0,-999,-99.99,,,-99.99,,2013-03-26 13:12:00,
2013-03-26 09:23:00,39.0,-99.9,29.84,North,-999,-999.0,-999.0,-999,-99.99,,,-99.99,,2013-03-26 13:23:00,
2013-03-26 09:32:00,39.0,-99.9,29.84,NW,308,10.0,12.0,-999,-99.99,,,-99.99,,2013-03-26 13:32:00,
2013-03-26 09:42:00,-999.0,-99.9,29.84,NW,308,10.0,13.0,-999,-99.99,,,-99.99,,2013-03-26 13:42:00,
2013-03-26 09:52:00,41.0,-99.9,29.84,North,-999,-999.0,-999.0,-999,-99.99,,,-99.99,,2013-03-26 13:52:00,
2013-03-26 10:02:00,41.0,-99.9,29.84,NW,320,13.0,15.0,-999,-99.99,,,-99.99,,2013-03-26 14:02:00,
2013-03-26 10:12:00,41.0,-99.9,29.84,North,-999,-999.0,-999.0,-999,-99.99,,,-99.99,,2013-03-26 14:12:00,
2013-03-26 10:23:00,-999.0,-99.9,29.85,NNW,329,14.0,18.0,-999,-99.99,,,-99.99,,2013-03-26 14:23:00,
2013-03-26 10:33:00,42.0,-99.9,29.85,NNW,343,11.0,21.0,-999,-99.99,,,-99.99,,2013-03-26 14:33:00,
2013-03-26 10:42:00,43.0,-99.9,29.85,NW,325,9.0,18.0,-999,-99.99,,,-99.99,,2013-03-26 14:42:00,
2013-03-26 10:53:00,42.0,-99.9,29.85,North,-999,-999.0,-999.0,-999,-99.99,,,-99.99,,2013-03-26 14:53:00,
2013-03-26 11:02:00,43.0,-99.9,29.85,NW,326,11.0,14.0,-999,-99.99,,,-99.99,,2013-03-26 15:02:00,
2013-03-26 11:12:00,-999.0,-99.9,29.86,NNW,339,11.0,17.0,-999,-99.99,,,-99.99,,2013-03-26 15:12:00,
2013-03-26 11:22:00,44.0,-99.9,29.86,North,-999,-999.0,-999.0,-999,-99.99,,,-99.99,,2013-03-26 15:22:00,
2013-03-26 11:33:00,44.0,-99.9,29.86,NNW,342,11.0,16.0,-999,-99.99,,,-99.99,,2013-03-26 15:33:00,
2013-03-26 11:43:00,44.0,-99.9,29.86,NW,323,16.0,22.0,-999,-99.99,,,-99.99,,2013-03-26 15:43:00,
2013-03-26 11:53:00,-999.0,-99.9,29.86,NNW,328,16.0,22.0,-999,-99.99,,,-99.99,,2013-03-26 15:53:00,
2013-03-26 12:03:00,45.0,-99.9,29.86,NNW,329,16.0,19.0,-999,-99.99,,,-99.99,,2013-03-26 16:03:00,
2013-03-26 12:13:00,-999.0,-99.9,29.86,NNW,328,13.0,19.0,-999,-99.99,,,-99.99,,2013-03-26 16:13:00,
2013-03-26 12:23:00,-999.0,-99.9,29.86,NW,326,11.0,16.0,-999,-99.99,,,-99.99,,2013-03-26 16:23:00,
2013-03-26 12:33:00,45.0,-99.9,29.86,NW,307,14.0,19.0,-999,-99.99,,,-99.99,,2013-03-26 16:33:00,
2013-03-26 12:43:00,45.0,-99.9,29.87,NW,316,15.0,23.0,-999,-99.99,,,-99.99,,2013-03-26 16:43:00,
2013-03-26 12:54:00,45.0,-99.9,29.87,North,-999,-999.0,-999.0,-999,-99.99,,,-99.99,,2013-03-26 16:54:00,
2013-03-26 13:03:00,45.0,-99.9,29.87,NW,315,19.0,22.0,-999,-99.99,,,-99.99,,2013-03-26 17:03:00,
2013-03-26 13:12:00,45.0,-99.9,29.87,North,-999,-999.0,-999.0,-999,-99.99,,,-99.99,,2013-03-26 17:12:00,
2013-03-26 13:23:00,46.0,-99.9,29.87,North,-999,-999.0,-999.0,-999,-99.99,,,-99.99,,2013-03-26 17:23:00,
2013-03-26 13:33:00,46.0,-99.9,29.86,NW,306,9.0,17.0,-999,-99.99,,,-99.99,,2013-03-26 17:33:00,
2013-03-26 13:42:00,46.0,-99.9,29.86,NNW,327,11.0,15.0,-999,-99.99,,,-99.99,,2013-03-26 17:42:00,
2013-03-26 13:53:00,46.0,-99.9,29.86,North,-999,-999.0,-999.0,-999,-99.99,,,-99.99,,2013-03-26 17:53:00,
2013-03-26 14:03:00,46.0,-99.9,29.86,NW,312,12.0,16.0,-999,-99.99,,,-99.99,,2013-03-26 18:03:00,
2013-03-26 14:12:00,-999.0,-99.9,29.86,NW,311,10.0,16.0,-999,-99.99,,,-99.99,,2013-03-26 18:12:00,
2013-03-26 14:23:00,-999.0,-99.9,29.86,NW,308,12.0,18.0,-999,-99.99,,,-99.99,,2013-03-26 18:23:00,
2013-03-26 14:34:00,46.0,-99.9,29.86,NW,314,15.0,17.0,-999,-99.99,,,-99.99,,2013-03-26 18:34:00,
2013-03-26 14:42:00,-999.0,-99.9,29.86,NW,310,11.0,16.0,-999,-99.99,,,-99.99,,2013-03-26 18:42:00,
2013-03-26 14:53:00,-999.0,-99.9,29.86,NNW,329,10.0,12.0,-999,-99.99,,,-99.99,,2013-03-26 18:53:00,
2013-03-26 15:03:00,46.0,-99.9,29.87,NW,310,12.0,13.0,-999,-99.99,,,-99.99,,2013-03-26 19:03:00,
2013-03-26 15:12:00,-999.0,-99.9,29.87,WNW,299,12.0,17.0,-999,-99.99,,,-99.99,,2013-03-26 19:12:00,
2013-03-26 15:23:00,-999.0,-99.9,29.87,WNW,300,10.0,13.0,-999,-99.99,,,-99.99,,2013-03-26 19:23:00,
2013-03-26 15:33:00,-999.0,-99.9,29.86,NW,318,10.0,14.0,-999,-99.99,,,-99.99,,2013-03-26 19:33:00,
2013-03-26 15:42:00,-999.0,-99.9,29.86,NW,314,9.0,11.0,-999,-99.99,,,-99.99,,2013-03-26 19:42:00,
2013-03-26 15:53:00,46.0,-99.9,29.86,North,-999,-999.0,-999.0,-999,-99.99,,,-99.99,,2013-03-26 19:53:00,
2013-03-26 16:02:00,46.0,-99.9,29.86,WNW,291,6.0,13.0,-999,-99.99,,,-99.99,,2013-03-26 20:02:00,
2013-03-26 16:13:00,47.0,-99.9,29.86,NW,319,6.0,10.0,-999,-99.99,,,-99.99,,2013-03-26 20:13:00,
2013-03-26 16:23:00,47.0,-99.9,29.86,North,-999,-999.0,-999.0,-999,-99.99,,,-99.99,,2013-03-26 20:23:00,
2013-03-26 16:33:00,47.0,-99.9,29.86,NW,306,9.0,12.0,-999,-99.99,,,-99.99,,2013-03-26 20:33:00,
2013-03-26 16:43:00,47.0,-99.9,29.86,NW,307,12.0,15.0,-999,-99.99,,,-99.99,,2013-03-26 20:43:00,
2013-03-26 16:53:00,48.0,-99.9,29.86,North,-999,-999.0,-999.0,-999,-99.99,,,-99.99,,2013-03-26 20:53:00,
2013-03-26 17:02:00,48.0,-99.9,29.85,WNW,300,10.0,14.0,-999,-99.99,,,-99.99,,2013-03-26 21:02:00,
2013-03-26 17:13:00,49.0,-99.9,29.86,NW,318,10.0,12.0,-999,-99.99,,,-99.99,,2013-03-26 21:13:00,
2013-03-26 17:23:00,48.0,-99.9,29.86,North,-999,-999.0,-999.0,-999,-99.99,,,-99.99,,2013-03-26 21:23:00,
2013-03-26 17:33:00,48.0,-99.9,29.86,NW,307,8.0,14.0,-999,-99.99,,,-99.99,,2013-03-26 21:33:00,
2013-03-26 17:43:00,48.0,-99.9,29.86,North,-999,-999.0,-999.0,-999,-99.99,,,-99.99,,2013-03-26 21:43:00,
2013-03-26 17:53:00,-999.0,-99.9,29.86,NW,308,4.0,17.0,-999,-99.99,,,-99.99,,2013-03-26 21:53:00,
2013-03-26 18:02:00,49.0,-99.9,29.87,NW,320,12.0,19.0,-999,-99.99,,,-99.99,,2013-03-26 22:02:00,
2013-03-26 18:12:00,-999.0,-99.9,29.87,NW,304,10.0,14.0,-999,-99.99,,,-99.99,,2013-03-26 22:12:00,
2013-03-26 18:23:00,49.0,-99.9,29.87,North,-999,-999.0,-999.0,-999,-99.99,,,-99.99,,2013-03-26 22:23:00,
2013-03-26 18:33:00,49.0,-99.9,29.87,WNW,301,8.0,11.0,-999,-99.99,,,-99.99,,2013-03-26 22:33:00,
2013-03-26 18:43:00,49.0,-99.9,29.88,NW,311,9.0,11.0,-999,-99.99,,,-99.99,,2013-03-26 22:43:00,
2013-03-26 18:53:00,49.0,-99.9,29.88,North,-999,-999.0,-999.0,-999,-99.99,,,-99.99,,2013-03-26 22:53:00,
2013-03-26 19:01:00,48.0,-99.9,29.88,NNW,329,15.0,19.0,-999,-99.99,,,-99.99,,2013-03-26 23:01:00,
2013-03-26 19:11:00,48.0,-99.9,29.89,North,-999,-999.0,-999.0,-999,-99.99,,,-99.99,,2013-03-26 23:11:00,
2013-03-26 19:23:00,48.0,-99.9,29.89,North,-999,-999.0,-999.0,-999,-99.99,,,-99.99,,2013-03-26 23:23:00,
2013-03-26 19:32:00,47.0,-99.9,29.90,NW,311,9.0,18.0,-999,-99.99,,,-99.99,,2013-03-26 23:32:00,
2013-03-26 19:43:00,47.0,-99.9,29.91,NW,325,9.0,12.0,-999,-99.99,,,-99.99,,2013-03-26 23:43:00,
2013-03-26 19:53:00,47.0,-99.9,29.91,North,-999,-999.0,-999.0,-999,-99.99,,,-99.99,,2013-03-26 23:53:00,
2013-03-26 20:02:00,47.0,-99.9,29.92,NW,306,5.0,13.0,-999,-99.99,,,-99.99,,2013-03-27 00:02:00,
2013-03-26 20:12:00,47.0,-99.9,29.92,North,-999,-999.0,-999.0,-999,-99.99,,,-99.99,,2013-03-27 00:12:00,
2013-03-26 20:22:00,-999.0,-99.9,29.93,NW,322,9.0,15.0,-999,-99.99,,,-99.99,,2013-03-27 00:22:00,
2013-03-26 20:33:00,47.0,-99.9,29.93,NW,319,11.0,15.0,-999,-99.99,,,-99.99,,2013-03-27 00:33:00,
2013-03-26 20:43:00,47.0,-99.9,29.93,NW,309,9.0,10.0,-999,-99.99,,,-99.99,,2013-03-27 00:43:00,
2013-03-26 20:52:00,47.0,-99.9,29.93,North,-999,-999.0,-999.0,-999,-99.99,,,-99.99,,2013-03-27 00:52:00,
2013-03-26 21:02:00,47.0,-99.9,29.93,NW,319,8.0,10.0,-999,-99.99,,,-99.99,,2013-03-27 01:02:00,
2013-03-26 21:12:00,-999.0,-99.9,29.94,NW,305,6.0,9.0,-999,-99.99,,,-99.99,,2013-03-27 01:12:00,
2013-03-26 21:23:00,-999.0,-99.9,29.94,NW,305,8.0,10.0,-999,-99.99,,,-99.99,,2013-03-27 01:23:00,
2013-03-26 21:33:00,47.0,-99.9,29.95,NW,307,9.0,11.0,-999,-99.99,,,-99.99,,2013-03-27 01:33:00,
2013-03-26 21:43:00,47.0,-99.9,29.95,NW,304,8.0,11.0,-999,-99.99,,,-99.99,,2013-03-27 01:43:00,
2013-03-26 21:53:00,47.0,-99.9,29.95,North,-999,-999.0,-999.0,-999,-99.99,,,-99.99,,2013-03-27 01:53:00,
2013-03-26 22:03:00,47.0,-99.9,29.96,NW,317,12.0,15.0,-999,-99.99,,,-99.99,,2013-03-27 02:03:00,
2013-03-26 22:12:00,-999.0,-99.9,29.96,NW,310,12.0,16.0,-999,-99.99,,,-99.99,,2013-03-27 02:12:00,
2013-03-26 22:22:00,47.0,-99.9,29.96,North,-999,-999.0,-999.0,-999,-99.99,,,-99.99,,2013-03-27 02:22:00,
2013-03-26 22:32:00,47.0,-99.9,29.97,NW,316,13.0,17.0,-999,-99.99,,,-99.99,,2013-03-27 02:32:00,
2013-03-26 22:43:00,47.0,-99.9,29.97,NW,315,11.0,13.0,-999,-99.99,,,-99.99,,2013-03-27 02:43:00,
2013-03-26 22:53:00,46.0,-99.9,29.97,North,-999,-999.0,-999.0,-999,-99.99,,,-99.99,,2013-03-27 02:53:00,
2013-03-26 23:02:00,46.0,-99.9,29.97,WNW,299,9.0,11.0,-999,-99.99,,,-99.99,,2013-03-27 03:02:00,
2013-03-26 23:12:00,-999.0,-99.9,29.97,NW,304,8.0,12.0,-999,-99.99,,,-99.99,,2013-03-27 03:12:00,
2013-03-26 23:22:00,-999.0,-99.9,29.98,WNW,302,11.0,12.0,-999,-99.99,,,-99.99,,2013-03-27 03:22:00,
2013-03-26 23:33:00,46.0,-99.9,29.97,NW,307,10.0,13.0,-999,-99.99,,,-99.99,,2013-03-27 03:33:00,
2013-03-26 23:43:00,46.0,-99.9,29.98,North,-999,-999.0,-999.0,-999,-99.99,,,-99.99,,2013-03-27 03:43:00,
2013-03-26 23:53:00,-999.0,-99.9,29.98,NW,312,14.0,21.0,-999,-99.99,,,-99.99,,2013-03-27 03:53:00,